Temperature
6 5 5 6 6 6 6 6 6 7 8 7 7 7 7 8 7 7 7 8 8 8 9 9 10 10 11 11 11 11 11 12 12 12 12 12 12 12 12 12 12 13 13 13
5 5 6 7 6 6 6 6 6 7 8 8 7 7 7 7 7 7 7 7 8 8 8 9 9 10 10 10 11 11 11 11 11 11 11 11 11 12 12 12 12 12 13 13
6 6 7 7 6 6 6 6 6 7 7 7 7 7 7 7 7 7 7 7 7 7 8 8 9 9 9 10 10 10 10 11 11 11 11 11 11 11 11 12 12 12 12 12
6 7 7 7 7 7 7 7 7 7 7 6 7 6 7 7 7 7 7 7 7 7 8 8 8 9 9 9 9 10 10 10 10 11 11 11 11 11 11 11 11 11 11 12
6 7 7 7 7 7 7 7 7 7 7 6 6 6 6 6 6 6 6 6 7 7 7 7 8 8 8 9 9 10 10 10 10 10 10 10 10 10 10 10 11 11 11 11
6 7 7 7 7 7 7 7 7 6 6 6 6 6 6 6 6 6 6 6 6 6 7 7 7 8 8 8 9 9 9 9 9 10 10 9 10 10 10 10 10 10 10 11
6 7 7 7 7 7 7 6 6 6 6 6 6 6 6 7 6 6 6 6 6 6 6 7 7 7 7 8 8 8 9 9 9 9 9 9 9 9 9 10 10 10 10 10
5 6 7 7 7 7 6 6 6 7 6 6 6 6 6 6 6 6 6 6 6 6 6 6 6 7 7 7 7 8 8 8 9 9 9 9 9 9 9 9 9 9 9 10
5 6 7 7 7 7 7 6 6 5 5 5 6 6 6 6 6 5 5 5 5 5 6 6 6 6 6 7 7 7 8 8 8 8 8 8 8 8 8 9 9 9 9 9
6 6 6 7 7 7 7 6 5 5 6 6 6 6 6 6 5 5 5 5 5 5 5 6 6 6 6 6 7 7 7 7 7 7 7 7 7 8 8 8 8 8 8 8
6 5 6 6 6 6 6 6 5 4 5 6 6 6 6 6 5 5 5 5 5 5 5 5 5 6 6 6 6 6 7 7 7 7 7 7 7 7 7 8 8 8 8 8
5 5 5 6 6 6 6 6 5 6 5 4 5 6 6 5 5 5 5 5 5 5 5 5 5 5 5 6 6 6 6 6 7 7 7 7 7 7 7 7 7 7 7 7
6 5 5 6 6 6 6 6 5 4 4 3 5 6 6 5 5 5 5 5 5 5 5 5 5 5 5 5 5 6 6 6 6 6 6 6 6 6 6 6 6 7 7 7
6 4 5 6 6 5 5 6 5 4 4 4 5 5 5 5 4 4 5 5 5 5 5 5 5 5 5 5 5 5 6 6 6 6 6 6 6 6 6 6 6 6 6 6
5 4 5 5 5 5 5 5 5 5 5 4 5 5 5 5 4 5 5 5 5 4 4 4 4 5 5 5 5 5 5 5 5 5 5 5 5 5 5 5 5 6 6 6
4 4 5 5 5 5 5 5 5 5 5 4 4 5 5 5 5 5 4 4 4 4 5 5 5 4 4 5 5 5 4 4 4 4 5 5 5 5 5 5 5 5 5 5
3 4 4 4 4 5 5 5 5 5 5 4 5 5 4 4 4 5 5 5 5 5 5 4 4 4 4 4 4 4 4 4 4 4 4 4 4 5 5 5 5 4 4 4
3 3 3 3 4 6 6 6 5 5 5 4 5 5 4 5 5 6 6 6 5 5 5 5 4 4 4 4 4 4 4 4 4 4 4 4 4 4 4 4 4 4 4 4
3 3 3 3 3 4 6 5 5 5 5 5 4 4 4 4 4 5 6 6 6 6 5 5 5 4 4 4 4 4 4 4 4 4 4 4 4 4 3 3 3 3 3 3
2 2 3 3 4 6 7 5 5 6 6 5 4 3 3 3 3 4 6 6 6 5 5 5 5 4 4 4 4 4 4 4 4 3 3 3 3 3 3 3 3 3 3 3
3 2 2 3 3 4 4 5 5 6 6 6 5 4 4 3 5 6 6 6 6 5 5 5 4 4 4 4 4 4 4 3 3 3 3 3 3 3 3 3 3 2 2 2
2 2 2 2 3 5 5 4 4 5 6 6 6 6 5 6 6 6 6 5 5 5 5 4 4 4 4 4 3 3 3 3 3 3 3 3 2 2 2 2 2 2 2 2
1 2 2 3 4 5 5 5 6 6 6 6 6 6 6 5 6 6 5 5 5 5 5 4 4 4 3 3 3 3 3 3 2 2 2 2 2 2 2 2 2 2 2 2
1 1 1 1 2 4 5 6 7 7 7 7 7 6 6 6 6 5 5 5 4 4 4 4 4 3 3 3 3 3 3 2 2 2 2 2 2 2 1 1 1 1 1 1
1 0 0 1 2 3 6 8 8 8 7 7 7 6 6 6 5 5 5 5 4 4 4 4 3 3 3 3 2 2 2 2 2 2 2 1 1 1 1 1 1 1 1 0
0 1 1 3 4 4 7 8 8 7 7 7 6 6 6 5 5 5 5 5 4 4 4 3 3 3 3 2 2 2 2 2 1 1 1 1 1 1 1 1 1 0 0 0
Wind_Speed
2 2 4 6 7 5 3 4 6 6 4 2 5 8 9 6 3 3 3 2 2 2 2 2 2 2 1 2 2 2 3 3 4 3 3 3 3 2 2 2 4 5 6 7
1 4 7 5 5 4 5 6 7 6 3 2 4 7 6 4 3 2 2 2 2 2 4 4 4 3 2 2 2 2 2 3 4 3 3 2 2 2 2 2 2 3 3 5
4 3 3 4 4 4 6 6 6 5 4 2 3 6 4 3 2 3 2 1 2 2 3 3 4 4 4 3 2 2 2 2 3 4 4 3 2 1 1 1 1 2 2 3
4 4 2 3 4 5 5 5 6 5 2 2 2 3 4 4 4 4 4 3 3 3 3 4 5 5 5 3 2 3 3 3 3 3 4 4 3 2 1 1 1 1 1 2
3 2 2 4 4 4 4 3 3 3 2 2 2 1 5 3 4 4 4 4 4 3 4 5 5 4 5 5 4 3 3 3 3 3 3 3 3 2 1 1 1 1 2 2
3 2 2 3 3 3 2 1 1 1 1 1 2 1 4 2 3 3 3 4 4 5 5 5 5 5 6 6 5 5 5 4 3 3 2 2 3 3 2 1 2 2 2 2
3 3 2 1 1 1 1 2 2 3 2 2 1 1 4 3 2 0 1 3 4 5 5 5 6 7 6 6 5 5 5 4 3 3 3 2 1 2 2 1 1 1 1 1
1 3 2 1 1 1 1 2 3 2 2 3 2 2 4 3 2 2 2 2 4 5 5 5 5 5 6 6 6 6 5 5 5 4 3 3 2 1 1 1 1 1 1 1
0 3 2 2 1 2 1 1 2 3 0 1 3 4 4 2 2 3 3 3 3 4 4 4 5 6 6 6 6 5 5 5 5 4 4 4 3 2 1 1 1 1 1 1
1 2 3 3 2 2 1 2 3 2 1 1 4 3 3 2 1 0 1 1 2 3 3 4 5 5 5 5 5 5 4 4 4 3 3 2 2 2 1 1 1 1 2 2
1 0 4 2 1 1 1 2 2 2 2 2 2 4 3 4 3 3 2 1 1 2 2 3 4 4 5 5 6 5 5 5 4 3 2 2 2 2 2 2 2 2 2 2
1 1 2 4 3 2 2 2 3 2 1 2 2 4 2 3 3 3 3 1 0 1 2 3 3 4 4 5 5 5 5 5 5 4 4 4 4 4 3 3 3 2 3 3
1 2 3 5 4 2 1 1 2 3 3 3 2 5 2 0 1 2 3 2 0 0 1 2 3 3 4 4 4 5 5 5 5 5 5 5 5 5 4 4 4 3 3 3
3 2 3 4 4 3 4 3 2 3 2 3 5 6 5 4 3 3 2 2 2 1 1 1 2 2 3 3 3 4 5 5 5 5 5 5 4 4 4 4 4 4 3 3
3 0 2 5 5 4 5 6 4 5 6 6 6 6 9 7 6 5 4 3 2 1 0 0 1 2 3 3 4 4 4 5 5 4 4 4 4 5 5 5 4 5 4 4
2 0 2 4 3 4 6 7 6 6 5 6 5 8 7 4 3 3 4 4 3 3 2 1 0 1 1 2 2 3 3 4 3 3 3 4 5 5 5 5 5 5 5 4
1 1 2 4 6 6 6 6 7 4 5 6 7 7 3 3 6 7 7 6 5 4 3 3 2 2 1 1 1 1 2 3 3 4 4 4 5 5 5 5 5 5 5 5
2 2 1 2 5 4 6 1 5 5 6 7 6 5 5 5 4 5 5 7 6 5 4 3 3 2 1 1 1 2 2 3 4 4 5 5 5 5 5 5 5 5 5 5
4 4 1 0 3 8 7 2 3 4 6 6 7 5 2 1 2 3 5 6 6 6 4 3 3 2 1 0 1 2 3 3 4 5 5 5 5 5 5 5 5 5 4 5
3 3 3 2 2 5 5 1 1 1 5 4 4 4 3 4 2 5 4 4 4 3 2 2 2 1 1 0 1 2 2 3 4 4 4 4 4 4 5 5 4 4 4 4
1 1 3 4 5 8 6 2 2 2 5 3 4 5 6 7 6 3 3 3 3 3 3 3 3 2 1 1 2 2 2 2 3 4 4 4 4 4 4 4 4 4 4 5
6 5 5 4 4 7 3 5 5 7 3 2 4 5 6 5 2 2 3 3 3 3 3 3 3 2 1 1 2 1 1 2 2 3 3 4 4 4 4 4 5 4 4 5
7 8 6 8 9 5 5 7 6 4 4 4 4 5 5 4 3 3 3 3 3 3 3 3 3 2 1 1 2 1 1 2 2 2 3 3 4 4 4 4 4 4 4 4
5 4 4 6 10 8 9 8 7 6 6 6 5 5 5 5 5 4 3 3 3 3 3 3 3 2 1 1 1 1 1 1 1 1 2 3 3 4 4 3 3 3 4 4
7 6 5 7 9 8 7 7 7 6 6 5 4 5 6 5 5 5 4 4 4 3 3 3 4 3 3 2 1 1 0 0 0 1 2 3 3 3 3 3 3 3 3 4
7 9 8 9 8 6 7 5 4 5 6 6 5 4 4 6 6 5 5 5 5 4 4 4 4 3 3 2 2 1 1 1 0 1 1 2 2 3 3 3 4 5 4 7
Wind_Direction
144 147 220 222 216 234 250 257 276 276 271 248 262 281 295 308 308 293 294 288 285 272 307 338 332 328 68 95 120 149 159 156 144 146 150 159 179 185 177 179 172 178 181 183
106 245 242 232 222 226 242 265 273 286 274 240 286 296 300 306 296 283 282 312 308 359 13 13 6 29 71 94 108 123 157 155 151 152 148 147 151 166 177 191 164 161 176 184
210 249 244 219 226 229 247 238 251 265 308 297 307 315 320 335 354 13 26 21 15 39 34 28 32 56 66 57 72 105 130 136 135 140 131 125 119 111 147 183 186 172 168 182
251 265 258 248 235 216 257 241 245 255 291 312 350 308 320 343 353 8 8 12 17 21 44 53 52 52 53 47 57 88 86 91 104 117 128 143 155 166 204 209 209 184 158 186
258 271 254 253 249 215 237 257 244 240 217 304 325 255 304 350 350 354 10 6 9 26 46 46 43 47 44 38 38 56 65 67 83 101 129 145 154 164 184 180 193 219 229 224
259 277 251 250 267 217 224 329 349 44 106 305 288 220 308 317 308 338 14 13 15 32 46 45 36 44 49 36 34 41 57 52 65 85 96 130 158 164 167 185 204 221 227 218
327 312 302 283 0 14 58 73 23 5 6 272 301 194 271 291 312 39 33 12 21 33 41 40 38 40 43 36 30 37 51 55 65 82 82 89 144 176 180 194 213 236 255 262
4 314 306 324 196 223 230 139 154 208 245 294 346 261 275 306 342 37 53 45 38 33 37 39 36 34 35 33 31 35 39 49 55 61 62 60 62 80 87 48 304 286 279 266
5 295 309 316 282 148 133 156 167 134 96 324 304 300 307 11 40 52 50 48 34 36 38 39 34 29 30 28 23 25 32 35 37 38 44 44 38 32 25 23 359 313 303 285
172 291 313 319 45 35 118 136 95 114 118 315 310 288 263 264 261 56 51 30 16 29 32 33 34 30 29 26 22 21 26 28 23 28 33 28 17 12 353 11 13 328 313 314
75 159 320 0 36 287 39 69 93 107 137 153 285 282 228 215 211 195 206 186 58 35 32 32 28 25 23 23 23 22 23 26 26 29 26 23 8 2 359 358 340 323 311 299
95 107 298 281 269 225 207 179 151 147 235 158 185 271 304 219 210 186 187 177 98 68 43 32 27 25 29 26 19 17 16 24 22 26 29 29 23 19 14 358 338 318 299 284
131 93 5 347 344 355 299 227 144 130 124 159 184 263 319 344 206 198 184 177 165 92 48 37 29 24 21 19 17 13 13 15 13 19 25 24 17 12 4 350 341 328 304 290
103 116 178 222 264 271 280 266 190 145 169 218 226 249 278 261 243 229 201 186 183 177 134 71 32 14 9 7 10 15 10 8 11 17 20 19 7 360 354 346 343 338 333 328
82 175 250 260 271 264 259 258 227 208 205 210 240 237 251 240 232 222 199 182 174 187 175 109 36 7 4 3 7 11 7 4 9 13 10 1 354 357 358 354 355 352 354 354
49 69 321 301 299 294 274 259 239 231 221 232 255 265 255 241 197 190 196 190 197 210 220 232 277 345 341 342 349 356 356 352 7 14 4 360 4 4 360 360 4 3 360 358
18 79 354 296 315 331 284 244 208 220 215 195 223 242 235 223 207 205 203 201 208 210 213 216 234 244 259 285 303 332 338 352 11 14 8 4 4 5 357 360 7 4 357 358
165 131 147 306 353 275 256 237 198 224 246 224 237 244 219 224 226 215 195 195 207 207 206 210 217 235 264 307 340 355 10 14 15 13 10 6 5 1 356 4 5 356 353 351
177 158 146 92 297 283 293 255 187 204 272 231 228 244 237 98 35 286 218 200 204 204 204 204 206 205 197 331 355 32 28 19 15 8 3 357 355 355 356 358 353 349 351 348
90 127 141 158 259 263 273 277 217 120 290 271 206 217 189 129 196 258 214 190 197 193 182 176 164 134 117 23 67 65 33 20 1 348 345 347 351 353 350 346 345 344 345 340
119 129 181 201 242 268 262 259 110 159 267 282 207 203 182 192 216 231 171 183 186 183 177 158 143 148 177 128 94 77 36 349 329 337 344 350 352 352 349 350 348 346 349 349
190 186 201 182 219 261 218 140 190 229 272 245 221 210 203 215 223 191 181 182 174 175 167 151 145 158 165 117 108 89 330 316 342 351 352 352 350 354 358 358 352 351 355 354
206 198 195 201 223 250 206 213 239 229 240 238 225 229 200 202 213 207 194 190 190 182 169 155 156 156 149 134 138 168 290 335 354 360 349 344 350 356 354 355 354 353 355 353
252 200 204 254 263 255 246 245 251 232 233 242 227 217 194 206 208 204 198 197 194 183 175 162 154 161 194 199 175 196 288 343 355 348 340 341 351 352 349 347 347 350 347 343
229 185 213 253 272 290 273 235 239 239 237 235 224 208 203 198 206 204 204 204 201 195 183 172 175 189 209 204 207 218 225 154 326 327 336 338 339 340 336 330 322 327 317 321
200 190 195 230 231 218 253 254 225 223 230 223 215 221 215 201 206 202 205 204 198 194 185 182 188 197 210 204 214 228 214 184 175 316 326 327 330 330 328 323 325 324 324 328
Height
1479 1482 1482 1481 1482 1482 1482 1482 1481 1477 1473 1474 1472 1469 1465 1462 1461 1459 1458 1457 1456 1456 1457 1456 1456 1455 1456 1458 1460 1463 1465 1467 1469 1472 1474 1477 1480 1482 1485 1488 1490 1493 1496 1498
1481 1481 1478 1478 1479 1480 1481 1481 1479 1475 1471 1472 1470 1468 1463 1461 1460 1458 1457 1456 1455 1454 1454 1454 1454 1454 1454 1456 1458 1461 1463 1465 1467 1469 1472 1475 1478 1480 1482 1484 1486 1489 1491 1494
1479 1478 1475 1477 1478 1479 1478 1478 1477 1475 1472 1470 1470 1467 1463 1460 1458 1457 1456 1456 1455 1454 1453 1453 1453 1453 1454 1455 1457 1459 1461 1463 1465 1467 1469 1472 1475 1476 1478 1480 1482 1484 1487 1489
1477 1475 1475 1475 1475 1476 1476 1473 1472 1472 1474 1475 1474 1473 1464 1462 1459 1457 1456 1455 1455 1454 1453 1453 1453 1453 1453 1455 1457 1458 1459 1460 1462 1464 1466 1468 1470 1472 1474 1477 1478 1480 1482 1485
1476 1474 1474 1474 1472 1472 1472 1470 1471 1471 1473 1476 1474 1474 1468 1464 1461 1458 1457 1456 1455 1454 1454 1453 1453 1453 1454 1454 1455 1456 1457 1458 1459 1462 1464 1466 1467 1469 1472 1473 1475 1476 1478 1480
1475 1473 1473 1471 1470 1470 1470 1471 1471 1473 1475 1476 1474 1474 1470 1466 1462 1460 1459 1457 1456 1455 1455 1454 1454 1453 1453 1454 1455 1456 1456 1457 1458 1460 1462 1463 1464 1466 1468 1470 1471 1473 1474 1475
1476 1473 1472 1471 1471 1470 1471 1475 1479 1478 1480 1477 1473 1473 1470 1463 1461 1460 1460 1459 1457 1456 1456 1455 1454 1453 1453 1454 1455 1455 1455 1456 1457 1458 1460 1461 1462 1463 1464 1466 1467 1468 1469 1470
1480 1479 1472 1471 1471 1472 1472 1475 1481 1480 1480 1479 1475 1473 1469 1463 1462 1461 1461 1460 1459 1458 1457 1456 1455 1455 1454 1454 1454 1454 1454 1454 1455 1456 1457 1458 1459 1460 1461 1462 1463 1464 1465 1466
1480 1479 1472 1470 1470 1471 1472 1475 1476 1482 1483 1482 1477 1474 1467 1464 1463 1462 1462 1461 1461 1460 1459 1459 1458 1457 1456 1455 1455 1454 1454 1454 1454 1455 1455 1456 1457 1458 1458 1459 1460 1461 1461 1462
1479 1480 1474 1472 1470 1471 1472 1474 1479 1481 1480 1478 1476 1475 1471 1465 1465 1464 1464 1463 1462 1462 1461 1460 1459 1458 1457 1457 1456 1455 1454 1454 1453 1453 1454 1455 1455 1455 1456 1456 1456 1457 1458 1458
1478 1481 1478 1474 1473 1474 1474 1475 1478 1482 1481 1482 1479 1474 1464 1463 1463 1464 1463 1463 1463 1462 1462 1461 1461 1460 1459 1458 1456 1455 1454 1453 1452 1452 1453 1453 1454 1454 1454 1454 1453 1454 1454 1455
1479 1483 1482 1477 1473 1473 1473 1474 1477 1480 1481 1485 1484 1476 1462 1462 1461 1462 1463 1463 1463 1463 1463 1462 1462 1461 1459 1458 1457 1456 1454 1453 1452 1452 1452 1452 1451 1451 1451 1450 1450 1450 1450 1450
1479 1483 1485 1479 1479 1476 1474 1473 1475 1479 1483 1487 1483 1473 1462 1461 1462 1462 1462 1463 1463 1463 1463 1462 1462 1461 1460 1459 1458 1456 1455 1454 1453 1452 1451 1451 1450 1449 1449 1448 1448 1447 1447 1446
1477 1482 1486 1482 1478 1477 1475 1473 1475 1477 1482 1481 1476 1470 1463 1462 1461 1461 1462 1462 1462 1463 1463 1462 1461 1460 1460 1459 1458 1457 1456 1454 1453 1452 1451 1450 1449 1448 1447 1446 1445 1444 1443 1442
1478 1482 1481 1480 1477 1476 1474 1472 1472 1473 1473 1475 1469 1468 1461 1459 1459 1459 1460 1461 1461 1461 1462 1461 1461 1460 1459 1459 1458 1457 1456 1455 1453 1452 1451 1449 1448 1447 1445 1444 1443 1442 1441 1439
1480 1482 1480 1478 1475 1475 1473 1469 1469 1468 1468 1468 1467 1464 1456 1456 1456 1458 1458 1459 1460 1460 1460 1460 1460 1460 1459 1458 1458 1457 1455 1454 1453 1451 1450 1448 1447 1445 1444 1442 1441 1440 1438 1437
1483 1483 1482 1482 1478 1472 1470 1463 1464 1463 1462 1463 1463 1458 1455 1455 1455 1455 1456 1457 1458 1458 1459 1459 1459 1459 1458 1458 1457 1456 1455 1453 1452 1450 1449 1447 1446 1444 1443 1441 1440 1438 1437 1436
1483 1484 1486 1485 1481 1474 1462 1458 1458 1459 1457 1457 1455 1453 1452 1452 1452 1453 1454 1455 1456 1457 1457 1458 1458 1457 1457 1457 1456 1455 1454 1453 1451 1450 1448 1446 1445 1444 1442 1441 1439 1438 1436 1435
1480 1482 1486 1488 1485 1474 1460 1457 1457 1458 1455 1451 1452 1451 1451 1451 1452 1452 1452 1453 1454 1454 1455 1456 1456 1456 1455 1455 1455 1454 1453 1452 1450 1449 1447 1446 1445 1443 1441 1440 1438 1437 1435 1434
1480 1482 1486 1486 1481 1469 1457 1455 1454 1457 1455 1448 1448 1449 1450 1451 1455 1451 1450 1451 1452 1453 1453 1454 1454 1454 1454 1454 1453 1453 1452 1451 1449 1448 1447 1446 1444 1443 1441 1439 1437 1436 1434 1433
1482 1484 1485 1485 1482 1469 1457 1454 1455 1460 1453 1447 1446 1446 1447 1448 1448 1448 1447 1448 1449 1450 1451 1452 1452 1453 1452 1452 1452 1451 1451 1450 1449 1448 1447 1445 1443 1442 1440 1438 1437 1435 1433 1431
1479 1482 1483 1483 1480 1467 1453 1454 1456 1451 1446 1445 1444 1444 1444 1444 1445 1445 1445 1446 1447 1448 1449 1449 1450 1451 1451 1450 1450 1450 1449 1449 1448 1446 1445 1444 1442 1441 1439 1438 1436 1434 1432 1430
1474 1471 1471 1470 1462 1451 1449 1448 1446 1446 1444 1443 1443 1442 1443 1443 1443 1443 1444 1444 1445 1446 1447 1447 1448 1448 1449 1448 1448 1448 1448 1447 1446 1445 1444 1442 1441 1439 1438 1436 1435 1433 1431 1429
1466 1464 1465 1463 1451 1446 1445 1444 1443 1443 1442 1442 1441 1441 1440 1440 1441 1441 1442 1442 1443 1444 1444 1445 1445 1446 1446 1446 1446 1446 1446 1445 1444 1443 1442 1441 1439 1438 1437 1435 1434 1432 1430 1428
1459 1460 1461 1457 1447 1442 1439 1439 1439 1439 1439 1439 1439 1439 1438 1438 1439 1439 1439 1440 1441 1441 1442 1442 1443 1443 1443 1444 1444 1444 1443 1443 1442 1441 1440 1439 1438 1437 1435 1434 1433 1431 1429 1427
1450 1451 1452 1446 1439 1440 1436 1435 1436 1435 1435 1435 1435 1435 1435 1436 1436 1437 1437 1438 1438 1439 1439 1440 1440 1440 1441 1441 1441 1441 1441 1440 1439 1438 1438 1437 1436 1435 1433 1432 1431 1429 1428 1426